ACS3 (59588 NORAD) Tracking and Keplerian Element Data

This shows tracking and keplerian element data for the satellite.

Feedback or suggestion? Click here.




ElementValue
Catalog59588
NameACS3
Epoch Orbit610
Epoch Day159.6638198
Epoch Year2024
RAAN230.0561
Inclination97.4065
Eccentricity0.0021522
Argument of Perigee119.2502
Mean Anonmoly241.0805
Mean Motion13.67683707
Decay Rate1.03E-06
L11 59588U 24077B 24159.66381980 .00000103 00000+0 15510-3 0 9995
L22 59588 97.4065 230.0561 0021522 119.2502 241.0805 13.67683707 6102



Live tracking and technical data element details for ACS3 (NORAD 59588). ACS3 can be tracked NOW for your location showing map with azimuth and elevation plus other details from your city location.







IsCatalogInMostPopularTable: catalog: 59588, numindb: 12
Update: records affected: 1



GetName: 59588 ACS3

Hit Count: updated at: Fri, 14 Jun 2024 19:52:11 GMT